Location: ?????
(37.7324°N, 23.9257°E)
Time: 07:34:36
(UTC+00:00)

ERS-2 - Pass Details

Date: 29 November 2020
Orbit: 492 x 497 km, 98.6° (Epoch: 17 January)

Event Time Altitude Azimuth Distance (km) Brightness Sun altitude
Rises 02:40:57 0° 140° (SE) 2,563 6.3 -30.7°
Reaches altitude 10° 02:43:13 10° 128° (SE) 1,686 5.4 -30.3°
Enters shadow 02:45:33 24° 91° (E) 1,052 4.4 -29.8°
